Total_Precipitation_Accumulation
0.08 0.08 0.09 0.13 0.16 0.20 0.24 0.29 0.43 0.55 0.68 0.77 0.86 1.05 1.17 1.21 1.17 1.12 1.08 0.92 0.73 0.73 0.79 0.73 0.82 0.76 0.68 0.68 0.56 0.57 0.54 0.41 0.26 0.37 0.37 0.17 0.06 0.04 0.02 0.01 0.00 0.01 0.00
0.05 0.05 0.06 0.08 0.11 0.13 0.19 0.26 0.38 0.59 0.78 0.95 1.12 1.27 1.45 1.51 1.49 1.50 1.40 1.34 1.18 1.08 0.96 0.95 1.05 1.00 1.01 1.10 0.94 0.92 0.87 0.65 0.41 0.60 0.73 0.42 0.22 0.09 0.04 0.03 0.01 0.01 0.01
0.05 0.04 0.03 0.04 0.06 0.08 0.12 0.19 0.30 0.50 0.77 1.05 1.24 1.39 1.55 1.75 1.80 1.69 1.58 1.53 1.50 1.45 1.29 1.20 1.21 1.15 1.13 1.29 1.31 1.20 1.12 0.99 0.72 0.61 0.70 0.61 0.51 0.30 0.08 0.05 0.05 0.04 0.03
0.07 0.06 0.04 0.03 0.04 0.06 0.09 0.13 0.27 0.42 0.62 0.88 1.14 1.34 1.55 1.82 1.85 1.76 1.66 1.58 1.56 1.56 1.47 1.39 1.36 1.24 1.12 1.20 1.32 1.30 1.31 1.34 1.10 0.86 0.67 0.53 0.52 0.46 0.26 0.11 0.08 0.09 0.08
0.12 0.09 0.06 0.06 0.07 0.09 0.12 0.18 0.31 0.44 0.63 0.86 1.12 1.36 1.51 1.64 1.76 1.73 1.65 1.52 1.47 1.41 1.34 1.36 1.40 1.29 1.17 1.17 1.30 1.40 1.48 1.38 1.29 1.12 0.98 0.87 0.77 0.53 0.47 0.36 0.17 0.11 0.10
0.11 0.12 0.13 0.14 0.14 0.16 0.19 0.26 0.39 0.58 0.74 0.84 0.96 1.07 1.22 1.44 1.54 1.61 1.61 1.58 1.47 1.32 1.22 1.22 1.24 1.23 1.18 1.16 1.21 1.30 1.37 1.41 1.44 1.30 1.11 1.02 0.94 0.86 0.76 0.54 0.36 0.22 0.11
0.20 0.23 0.26 0.29 0.29 0.31 0.36 0.43 0.50 0.58 0.63 0.63 0.70 0.81 0.93 1.05 1.11 1.21 1.37 1.38 1.36 1.28 1.20 1.13 1.16 1.19 1.16 1.18 1.25 1.22 1.20 1.29 1.35 1.33 1.24 1.16 1.00 0.88 0.87 0.72 0.53 0.41 0.20
0.32 0.42 0.49 0.54 0.51 0.48 0.49 0.44 0.43 0.43 0.44 0.47 0.53 0.60 0.64 0.71 0.75 0.76 0.90 1.02 0.99 0.92 0.86 0.86 0.93 1.03 1.07 1.10 1.13 1.15 1.15 1.14 1.14 1.19 1.21 1.21 1.16 0.96 0.84 0.81 0.80 0.67 0.48
0.50 0.63 0.73 0.78 0.73 0.63 0.53 0.46 0.42 0.43 0.40 0.41 0.45 0.49 0.51 0.53 0.53 0.53 0.52 0.55 0.60 0.59 0.55 0.58 0.67 0.79 0.89 0.94 0.96 1.00 1.03 1.03 1.00 1.03 1.05 1.01 1.05 1.00 0.85 0.79 0.79 0.81 0.68
0.70 0.81 0.88 0.85 0.83 0.85 0.73 0.56 0.47 0.48 0.48 0.57 0.53 0.44 0.39 0.37 0.35 0.37 0.41 0.39 0.44 0.49 0.48 0.48 0.52 0.58 0.66 0.76 0.80 0.84 0.88 0.82 0.78 0.78 0.80 0.85 0.92 0.98 0.95 0.91 0.87 0.84 0.77
0.87 0.90 0.97 0.90 0.77 0.73 0.70 0.66 0.58 0.54 0.53 0.63 0.62 0.50 0.41 0.38 0.38 0.36 0.34 0.40 0.47 0.50 0.41 0.42 0.51 0.51 0.55 0.59 0.67 0.77 0.86 0.79 0.74 0.67 0.65 0.74 0.82 1.00 1.06 1.03 0.94 0.90 0.84
0.87 0.91 0.98 0.88 0.71 0.64 0.54 0.58 0.63 0.61 0.61 0.63 0.59 0.52 0.49 0.49 0.52 0.51 0.40 0.40 0.43 0.41 0.41 0.45 0.47 0.47 0.50 0.54 0.62 0.70 0.75 0.75 0.67 0.60 0.56 0.60 0.68 0.83 0.99 1.10 1.01 0.95 0.88
0.71 0.70 0.71 0.78 0.73 0.67 0.55 0.60 0.66 0.67 0.68 0.67 0.65 0.59 0.49 0.48 0.49 0.48 0.41 0.40 0.40 0.37 0.43 0.44 0.47 0.46 0.44 0.50 0.54 0.57 0.57 0.50 0.47 0.46 0.44 0.49 0.54 0.64 0.77 0.91 0.99 0.96 0.90
0.51 0.49 0.45 0.50 0.53 0.55 0.58 0.61 0.72 0.80 0.83 0.81 0.74 0.69 0.62 0.61 0.51 0.41 0.36 0.35 0.35 0.31 0.34 0.38 0.39 0.42 0.42 0.44 0.45 0.44 0.47 0.41 0.32 0.28 0.27 0.32 0.35 0.42 0.55 0.69 0.82 0.94 0.97
0.36 0.35 0.31 0.32 0.34 0.37 0.44 0.51 0.64 0.77 0.86 0.89 0.83 0.75 0.70 0.60 0.49 0.44 0.33 0.29 0.25 0.24 0.27 0.36 0.45 0.48 0.47 0.49 0.48 0.40 0.42 0.41 0.35 0.29 0.25 0.21 0.22 0.27 0.36 0.48 0.67 0.80 0.92
0.26 0.24 0.23 0.21 0.23 0.29 0.35 0.36 0.47 0.62 0.72 0.76 0.75 0.75 0.71 0.56 0.48 0.41 0.32 0.25 0.23 0.22 0.25 0.29 0.38 0.48 0.45 0.54 0.53 0.44 0.41 0.40 0.33 0.28 0.30 0.30 0.26 0.20 0.17 0.19 0.31 0.46 0.64
0.23 0.21 0.20 0.21 0.23 0.30 0.31 0.32 0.41 0.52 0.56 0.60 0.63 0.63 0.59 0.46 0.40 0.31 0.27 0.26 0.24 0.25 0.28 0.31 0.38 0.50 0.60 0.56 0.42 0.43 0.41 0.40 0.34 0.27 0.27 0.31 0.30 0.34 0.30 0.25 0.22 0.22 0.30
0.16 0.21 0.18 0.17 0.19 0.24 0.29 0.37 0.40 0.41 0.41 0.45 0.48 0.46 0.46 0.41 0.33 0.25 0.25 0.25 0.25 0.27 0.28 0.31 0.35 0.39 0.51 0.48 0.39 0.49 0.48 0.49 0.45 0.37 0.33 0.35 0.35 0.35 0.46 0.49 0.41 0.34 0.35
0.07 0.10 0.09 0.09 0.10 0.10 0.11 0.14 0.17 0.19 0.23 0.30 0.36 0.39 0.39 0.35 0.30 0.25 0.31 0.36 0.33 0.31 0.30 0.29 0.30 0.33 0.38 0.41 0.34 0.38 0.49 0.56 0.51 0.42 0.41 0.43 0.44 0.56 0.55 0.47 0.46 0.45 0.45
0.02 0.03 0.03 0.03 0.03 0.02 0.02 0.03 0.05 0.09 0.13 0.19 0.24 0.28 0.30 0.34 0.37 0.45 0.52 0.52 0.48 0.40 0.35 0.33 0.30 0.32 0.33 0.41 0.26 0.30 0.42 0.52 0.59 0.53 0.48 0.62 0.57 0.57 0.44 0.31 0.41 0.48 0.49
0.00 0.00 0.01 0.01 0.00 0.00 0.00 0.00 0.01 0.02 0.02 0.04 0.10 0.18 0.29 0.34 0.44 0.55 0.58 0.56 0.50 0.41 0.35 0.33 0.31 0.31 0.38 0.50 0.40 0.39 0.45 0.50 0.58 0.61 0.60 0.58 0.63 0.45 0.34 0.29 0.35 0.48 0.52
0.00 0.00 0.00 0.00 0.00 0.00 0.00 0.00 0.00 0.00 0.01 0.03 0.07 0.13 0.20 0.29 0.42 0.51 0.50 0.49 0.47 0.44 0.40 0.39 0.37 0.38 0.47 0.53 0.50 0.47 0.49 0.50 0.56 0.58 0.51 0.47 0.48 0.33 0.26 0.24 0.29 0.36 0.38
0.00 0.00 0.00 0.00 0.00 0.00 0.00 0.00 0.00 0.00 0.00 0.01 0.02 0.06 0.11 0.22 0.36 0.39 0.39 0.42 0.44 0.43 0.42 0.40 0.37 0.36 0.40 0.49 0.56 0.47 0.39 0.35 0.41 0.42 0.40 0.34 0.30 0.25 0.21 0.21 0.25 0.26 0.32
0.00 0.00 0.00 0.00 0.00 0.00 0.00 0.00 0.00 0.00 0.00 0.00 0.00 0.01 0.02 0.05 0.10 0.15 0.20 0.26 0.31 0.32 0.32 0.34 0.38 0.40 0.40 0.39 0.41 0.41 0.37 0.31 0.30 0.26 0.19 0.18 0.19 0.22 0.24 0.25 0.23 0.24 0.37
0.00 0.00 0.00 0.00 0.00 0.00 0.00 0.00 0.00 0.00 0.00 0.00 0.00 0.01 0.02 0.03 0.04 0.06 0.09 0.12 0.15 0.19 0.24 0.30 0.33 0.34 0.38 0.36 0.36 0.36 0.36 0.40 0.43 0.42 0.29 0.22 0.20 0.21 0.23 0.25 0.29 0.37 0.45
0.00 0.00 0.00 0.00 0.00 0.00 0.00 0.00 0.00 0.00 0.00 0.00 0.00 0.00 0.01 0.01 0.01 0.02 0.03 0.04 0.06 0.09 0.12 0.15 0.18 0.18 0.24 0.30 0.31 0.33 0.34 0.35 0.39 0.42 0.41 0.40 0.40 0.38 0.34 0.32 0.29 0.31 0.37